Weather History for KHVR - April, 2014

Change the Weather History Date:

Friday, April 25, 2014

  Actual Average Record
Temperature  
Mean Temperature 49 °F 47 °F  
Max Temperature 64 °F 62 °F 89 °F (1910)
Min Temperature 33 °F 33 °F 18 °F (1959)
Degree Days  
Heating Degree Days 16 18  
Month to date heating degree days 511 535  
Since 1 July heating degree days 7914 7653  
Cooling Degree Days 0 0  
Month to date cooling degree days 0 0  
Year to date cooling degree days 0 0  
Moisture  
Dew Point 31 °F    
Average Humidity 59    
Maximum Humidity 92    
Minimum Humidity 25    
Precipitation  
Precipitation 0.00 in 0.04 in 1.67 in (1882)
Month to date precipitation 0.47 0.65  
Year to date precipitation 2.27 1.80  
Snow  
Snow 0.00 in 0.00 in 1.50 in (1994)
Month to date snowfall T 2.7  
Since 1 July snowfall 44.4 36.9  
Snow Depth 0.00 in    
Sea Level Pressure  
Sea Level Pressure 29.75 in    
Wind  
Wind Speed 9 mph (WSW)    
Max Wind Speed 22 mph    
Max Gust Speed 27 mph    
Visibility 10 miles    
Events      
T = Trace of Precipitation, MM = Missing Value Source: NWS Daily Summary

Daily Weather History Graph

Daily Weather History Graph

Search for Another Location

Airport or City:

Trip Planner

Search our weather history database for the weather conditions in past years. The results will help you decide how hot, cold, wet, or windy it might be!

Date:

Astronomy

Apr. 25, 2014 Rise Set
Actual Time 6:09 AM MDT 8:25 PM MDT
Civil Twilight 5:35 AM MDT 8:59 PM MDT
Nautical Twilight 4:52 AM MDT 9:42 PM MDT
Astronomical Twilight 4:04 AM MDT 10:31 PM MDT
Moon 4:19 AM MDT (4/25) 4:33 PM MDT (4/25)
Length of Visible Light 15h 24m
Length of Day
14h 15m
Waning Crescent, 15% of the Moon is Illuminated
Apr 25
Waning Crescent
Apr 29
New
May 6
First Quarter
May 14
Full
May 21
Last Quarter

Hourly Weather History & Observations

Time (MDT) Temp. Windchill Dew Point Humidity Pressure Visibility Wind Dir Wind Speed Gust Speed Precip Events Conditions
12:53 AM 39.9 °F 35.1 °F 35.1 °F 83% 29.74 in 10.0 mi SW 6.9 mph - N/A   Clear
1:53 AM 39.9 °F 32.9 °F 37.0 °F 89% 29.74 in 10.0 mi SW 11.5 mph - N/A   Clear
2:53 AM 37.0 °F 30.4 °F 34.0 °F 89% 29.76 in 10.0 mi SW 9.2 mph - N/A   Clear
3:53 AM 36.0 °F 32.1 °F 33.1 °F 89% 29.76 in 10.0 mi SSW 4.6 mph - N/A   Clear
4:53 AM 34.0 °F 27.2 °F 30.9 °F 89% 29.77 in 10.0 mi SSW 8.1 mph - N/A   Mostly Cloudy
5:53 AM 34.0 °F 26.0 °F 30.9 °F 89% 29.78 in 10.0 mi WSW 10.4 mph - N/A   Clear
6:53 AM 35.1 °F 29.3 °F 32.0 °F 89% 29.78 in 10.0 mi SSW 6.9 mph - N/A   Clear
7:53 AM 39.9 °F 33.9 °F 35.1 °F 83% 29.78 in 10.0 mi SW 9.2 mph - N/A   Clear
8:53 AM 46.0 °F 39.9 °F 35.1 °F 66% 29.79 in 10.0 mi SW 13.8 mph - N/A   Clear
9:03 AM 48.0 °F - 35.1 °F 61% 29.77 in 1.5 mi SW 13.8 mph - N/A   Haze
9:18 AM 48.9 °F - 35.1 °F 59% 29.77 in 10.0 mi SW 11.5 mph - N/A   Clear
9:53 AM 51.1 °F - 33.1 °F 50% 29.78 in 10.0 mi SW 10.4 mph - N/A   Clear
10:53 AM 55.9 °F - 30.0 °F 37% 29.78 in 10.0 mi West 10.4 mph - N/A   Clear
11:53 AM 57.9 °F - 30.0 °F 35% 29.77 in 10.0 mi West 9.2 mph - N/A   Clear
12:53 PM 57.9 °F - 28.9 °F 33% 29.76 in 10.0 mi NW 3.5 mph - N/A   Partly Cloudy
1:53 PM 60.1 °F - 26.1 °F 27% 29.74 in 10.0 mi Variable 3.5 mph - N/A   Clear
2:53 PM 62.1 °F - 26.1 °F 25% 29.73 in 10.0 mi Calm Calm - N/A   Clear
3:53 PM 60.1 °F - 25.0 °F 26% 29.72 in 10.0 mi Calm Calm - N/A   Partly Cloudy
4:53 PM 61.0 °F - 27.0 °F 27% 29.72 in 10.0 mi NE 6.9 mph - N/A   Mostly Cloudy
5:53 PM 61.0 °F - 27.0 °F 27% 29.71 in 10.0 mi North 5.8 mph - N/A   Clear
6:53 PM 59.0 °F - 28.0 °F 31% 29.71 in 10.0 mi NE 8.1 mph - N/A   Clear
7:53 PM 55.9 °F - 28.0 °F 34% 29.71 in 10.0 mi ENE 8.1 mph - N/A   Clear
8:53 PM 52.0 °F - 33.1 °F 49% 29.72 in 10.0 mi NE 16.1 mph 21.9 mph N/A   Clear
9:53 PM 48.0 °F - 34.0 °F 58% 29.74 in 10.0 mi ENE 17.3 mph - N/A   Clear
10:53 PM 46.0 °F 38.5 °F 33.1 °F 61% 29.73 in 10.0 mi ENE 19.6 mph - N/A   Clear
11:53 PM 44.1 °F 36.8 °F 33.1 °F 65% 29.71 in 10.0 mi ENE 16.1 mph - N/A   Partly Cloudy